EI8HJ Weather Reports


time (UTC)temp
C
wind
direction
speed
KPH
gust
KPH
rain 1hr
cm
rain 24hr
cm
rain mn
cm
humidity
%
barometer
mb
20260508162045 12 124 8.0 12.9 0.00 0.15 0.15 67 1018.3
20260508161045 12 156 8.0 11.3 0.00 0.15 0.15 67 1018.4
20260508155045 12 197 8.0 12.9 0.00 0.15 0.15 64 1018.2
20260508154045 12 193 9.7 14.5 0.00 0.15 0.15 64 1018.0
20260508152045 12 144 8.0 12.9 0.00 0.15 0.15 67 1018.0
20260508151046 12 168 8.0 12.9 0.00 0.15 0.15 68 1018.0
20260508150042 12 350 8.0 12.9 0.00 0.15 0.15 67 1018.0
20260508145044 12 121 8.0 14.5 0.00 0.15 0.15 66 1017.8
20260508143542 13 136 8.0 12.9 0.00 0.15 0.15 66 1018.1
20260508142544 13 203 8.0 14.5 0.00 0.15 0.15 66 1017.9
20260508140542 13 163 6.4 11.3 0.00 0.15 0.15 63 1017.9
20260508134544 12 62 6.4 11.3 0.00 0.15 0.15 62 1017.9
20260508133541 12 75 8.0 11.3 0.00 0.15 0.15 64 1017.8
20260508132540 13 90 4.8 12.9 0.00 0.15 0.15 62 1017.5
20260508131540 13 196 6.4 11.3 0.00 0.15 0.15 60 1017.4
20260508130540 14 135 4.8 11.3 0.00 0.15 0.15 59 1017.3
20260508125541 13 201 6.4 9.7 0.00 0.15 0.15 61 1017.3
20260508123540 14 189 4.8 9.7 0.00 0.15 0.15 58 1017.3
20260508122540 13 168 4.8 9.7 0.00 0.15 0.15 60 1017.2
20260508121540 14 227 4.8 8.0 0.00 0.15 0.15 59 1017.4
20260508120542 13 209 3.2 11.3 0.00 0.15 0.15 60 1017.3
20260508115541 13 211 3.2 8.0 0.00 0.15 0.15 60 1017.3
20260508114540 13 164 3.2 8.0 0.00 0.15 0.15 62 1017.2
20260508113540 13 50 4.8 9.7 0.00 0.15 0.15 61 1017.0
20260508112541 13 39 3.2 8.0 0.00 0.15 0.15 62 1017.0
20260508111541 12 61 4.8 9.7 0.00 0.15 0.15 62 1017.0
20260508110541 12 82 3.2 8.0 0.00 0.15 0.15 63 1017.0
20260508105541 12 45 3.2 9.7 0.00 0.15 0.15 63 1017.0
20260508104542 12 63 4.8 9.7 0.00 0.15 0.15 63 1017.0
20260508103541 12 73 4.8 11.3 0.00 0.15 0.15 65 1016.8
20260508102541 11 45 6.4 11.3 0.00 0.15 0.15 64 1016.8
20260508101541 11 81 4.8 11.3 0.00 0.15 0.15 64 1016.7
20260508100542 11 44 4.8 11.3 0.00 0.15 0.15 65 1016.8
20260508095541 11 65 6.4 12.9 0.00 0.15 0.15 65 1016.7
20260508094540 11 62 4.8 11.3 0.00 0.15 0.15 65 1016.7
20260508093540 11 69 4.8 11.3 0.00 0.15 0.15 66 1016.5
20260508092540 11 50 6.4 11.3 0.00 0.15 0.15 68 1016.5
20260508091541 11 80 4.8 11.3 0.00 0.15 0.15 68 1016.4
20260508090541 11 46 4.8 11.3 0.00 0.15 0.15 67 1016.2
20260508085541 11 81 4.8 11.3 0.00 0.15 0.15 69 1016.2
20260508084540 11 59 4.8 9.7 0.00 0.15 0.15 68 1016.1
20260508083540 11 66 4.8 9.7 0.00 0.15 0.15 69 1016.2
20260508082539 11 79 4.8 9.7 0.00 0.15 0.15 68 1016.1
20260508081540 11 81 4.8 9.7 0.00 0.15 0.15 71 1016.0
20260508080541 10 49 4.8 8.0 0.00 0.15 0.15 70 1015.9
20260508075542 10 61 4.8 8.0 0.00 0.15 0.15 72 1015.8
20260508074540 10 79 3.2 11.3 0.00 0.15 0.15 73 1015.7
20260508073539 10 62 4.8 9.7 0.00 0.15 0.15 72 1015.4
20260508072540 10 66 4.8 12.9 0.00 0.15 0.15 73 1015.4
20260508071540 10 62 3.2 9.7 0.00 0.15 0.15 74 1015.3
20260508070542 10 88 4.8 11.3 0.00 0.15 0.15 73 1015.1
20260508063540 10 67 4.8 9.7 0.00 0.15 0.15 73 1014.7
20260508062539 9 89 4.8 9.7 0.00 0.15 0.15 74 1014.8
20260508061541 9 52 3.2 8.0 0.00 0.15 0.15 74 1014.6
20260508060540 9 68 3.2 8.0 0.00 0.15 0.15 75 1014.6
20260508055540 9 81 3.2 9.7 0.00 0.15 0.15 74 1014.5
20260508054540 9 86 3.2 9.7 0.00 0.15 0.15 75 1014.3
20260508053540 9 59 4.8 9.7 0.00 0.15 0.15 74 1014.3
20260508052540 9 93 3.2 9.7 0.00 0.15 0.15 75 1014.2
20260508051540 9 87 3.2 9.7 0.00 0.15 0.15 74 1014.2
20260508050540 9 88 4.8 8.0 0.00 0.15 0.15 74 1014.3
20260508045539 9 67 3.2 9.7 0.00 0.15 0.15 76 1014.1
20260508044540 9 76 3.2 9.7 0.00 0.15 0.15 76 1014.0
20260508043540 9 76 4.8 9.7 0.00 0.15 0.15 76 1013.9
20260508042540 9 92 3.2 8.0 0.00 0.15 0.15 71 1014.1
20260508041540 8 59 3.2 4.8 0.00 0.15 0.15 73 1013.9
20260508040541 8 68 3.2 9.7 0.00 0.15 0.15 76 1013.8
20260508035539 8 65 4.8 12.9 0.00 0.15 0.15 74 1013.9
20260508034539 8 70 4.8 12.9 0.00 0.15 0.15 75 1013.8
20260508033539 8 177 3.2 4.8 0.00 0.15 0.15 75 1013.7
20260508032539 9 197 3.2 4.8 0.00 0.15 0.15 80 1013.9
20260508030540 9 196 1.6 4.8 0.00 0.15 0.15 76 1013.8
20260508025539 9 205 3.2 4.8 0.00 0.15 0.15 77 1013.7
20260508024539 10 161 1.6 3.2 0.00 0.15 0.15 75 1013.6
20260508023539 10 96 3.2 3.2 0.00 0.15 0.15 72 1013.5
20260508020540 9 254 1.6 3.2 0.00 0.15 0.15 74 1013.5
20260508015542 9 236 1.6 4.8 0.00 0.15 0.15 74 1013.5
20260508014542 9 257 1.6 4.8 0.00 0.15 0.15 74 1013.3
20260508013540 9 241 1.6 4.8 0.00 0.15 0.15 74 1013.4
20260508012540 10 224 3.2 4.8 0.00 0.15 0.15 73 1013.3
20260508011539 9 199 1.6 3.2 0.00 0.15 0.15 74 1013.2
20260508010539 10 156 1.6 3.2 0.00 0.15 0.15 74 1013.4
20260508004539 10 192 1.6 3.2 0.00 0.15 0.15 73 1013.3
20260508003540 10 221 1.6 3.2 0.00 0.15 0.15 73 1013.2
20260508002543 10 229 3.2 4.8 0.00 0.15 0.15 74 1013.3
20260508000539 10 277 3.2 4.8 0.00 0.15 0.15 74 1013.2
20260507235541 10 257 3.2 4.8 0.00 0.15 0.15 74 1013.2
20260507234540 10 238 1.6 3.2 0.00 0.15 0.15 73 1013.2
20260507233540 10 266 1.6 3.2 0.00 0.15 0.15 71 1013.1
20260507232539 10 239 1.6 8.0 0.00 0.15 0.15 71 1013.1
20260507231540 10 286 3.2 8.0 0.00 0.15 0.15 72 1013.1
20260507230546 10 257 3.2 9.7 0.00 0.15 0.15 73 1013.1
20260507225541 10 295 4.8 9.7 0.00 0.15 0.15 73 1012.9
20260507224539 10 290 4.8 9.7 0.00 0.15 0.15 74 1012.9
20260507223541 10 300 4.8 9.7 0.00 0.15 0.15 74 1012.7
20260507222542 10 287 4.8 8.0 0.00 0.15 0.15 71 1012.8
20260507215540 10 289 4.8 8.0 0.00 0.15 0.15 71 1012.9
20260507214540 10 285 4.8 8.0 0.00 0.15 0.15 72 1012.9
20260507213539 10 290 6.4 9.7 0.00 0.15 0.15 71 1012.6
20260507212540 10 289 4.8 9.7 0.00 0.15 0.15 72 1012.6
20260507211539 10 289 4.8 11.3 0.00 0.15 0.15 72 1012.6
20260507210539 10 286 6.4 9.7 0.00 0.15 0.15 72 1012.5
20260507205538 10 284 4.8 9.7 0.00 0.15 0.15 73 1012.4
20260507203539 10 256 1.6 1.6 0.00 0.15 0.15 81 1012.2
20260507202540 9 257 1.6 4.8 0.00 0.15 0.15 81 1012.1
20260507200539 10 259 1.6 3.2 0.00 0.15 0.15 79 1012.0
20260507194538 10 282 0.0 0.0 0.00 0.15 0.15 78 1011.9
20260507192538 10 282 0.0 0.0 0.00 0.15 0.15 76 1011.6
20260507190538 10 282 0.0 0.0 0.00 0.15 0.15 73 1011.5
20260507185538 10 282 0.0 4.8 0.00 0.15 0.15 73 1011.5
20260507183538 10 305 1.6 4.8 0.00 0.15 0.15 74 1011.4
20260507180538 10 275 3.2 8.0 0.00 0.15 0.15 80 1011.4
20260507174538 10 284 3.2 11.3 0.00 0.15 0.15 86 1011.2
20260507173538 10 281 8.0 12.9 0.00 0.15 0.15 85 1011.3
20260507172537 10 283 8.0 12.9 0.00 0.15 0.15 82 1011.3
20260507171538 10 276 4.8 12.9 0.00 0.15 0.15 80 1011.2
20260507170540 10 290 4.8 9.7 0.00 0.15 0.15 79 1011.1
20260507165538 10 297 4.8 11.3 0.00 0.15 0.15 80 1011.1
20260507164537 11 293 8.0 12.9 0.00 0.15 0.15 77 1011.0
20260507163539 11 295 9.7 14.5 0.00 0.15 0.15 78 1011.0
20260507162537 12 270 3.2 11.3 0.00 0.15 0.15 74 1011.1